Weather in Mosjoen

Norway     65°50′16″N   13°12′33″E
temp.,
°C
wind,
m/s
gust,
m/s
humid.,
%
clouds,
%
prec.,
mm/h
press.,
hPa
HPBL,
m
18 may, tue
tue1823:00+8e1186100 1.4 1001121
02:00+7e1194100 5.4 998121
05:00+6se2295100 0.5 99755
08:00+7se229192 0.6 997138
11:00+7s3487100 0.7 999610
14:00+6sse4790100 1.9 1001564
17:00+5ssw3993100 1.9 10041141
20:00+5s4895100 3.3 1006987
19 may, wed
wed1923:00+5s2392100 0.4 100792
02:00+5ssw2392100 0.4 100856
05:00+4s3392100 0.1 100868
08:00+5ssw2388100 0.1 1009169
11:00+6sw118399 0.0 1009324
14:00+8nw126677 0.2 10091021
17:00+9nw226241 0.2 1009968
20:00+8nw327037 0.3 1009688
20 may, thu
thu2023:00+5nw22919 0.0 100938
02:00+3wnw229683 0.0 101073
05:00+3wnw2289100 0.0 1010334
08:00+3nw1182100 0.0 1010502
11:00+4nw1174100 0.0 1010673
14:00+5wnw1168100 0.0 1010820
17:00+6nw2266100 0.0 1009857
20:00+5nnw2270100 0.0 1009591
21 may, fri
fri2123:00+4nw117959 0.0 100814
02:00+3nnw2282100 0.0 100820
05:00+2nnw1183100 0.0 100614
08:00+4nnw2275100 0.0 1005325
11:00+7nnw2264100 0.0 1003812
14:00+8nw2158100 0.0 10021172
17:00+7wnw2265100 0.0 1001691
20:00+7wnw217064 0.0 1001567
22 may, sat
sat2223:00+5wnw227893 0.0 1001326
02:00+4wnw1188100 0.0 1000418
05:00+3nw1196100 0.4 999507
08:00+3nnw1196100 0.9 999450
11:00+4nnw1192100 0.1 999610
14:00+4nnw1188100 0.2 999561
17:00+6nnw217696 0.0 999552
20:00+6n337833 0.0 998389